Weather History for Beaumont, TX

Change the Weather History Date:

Tuesday, May 13, 2014

  Actual Average Record
Temperature  
Mean Temperature 73 °F 75 °F  
Max Temperature 80 °F 84 °F 93 °F (2011)
Min Temperature 65 °F 66 °F 50 °F (1960)
Degree Days  
Heating Degree Days 0 0  
Month to date heating degree days 0 0  
Since 1 July heating degree days 1710 1400  
Cooling Degree Days 8 10  
Month to date cooling degree days 113 116  
Year to date cooling degree days 314 343  
Growing Degree Days 23 (Base 50)    
Moisture  
Dew Point 67 °F    
Average Humidity 79    
Maximum Humidity 87    
Minimum Humidity 71    
Precipitation  
Precipitation 0.12 in 0.17 in 5.29 in (1966)
Month to date precipitation 0.21 2.20  
Year to date precipitation 11.24 17.78  
Snow  
Snow 0.00 in 0.00 in 0.00 in ()
Month to date snowfall 0.0 0.0  
Since 1 July snowfall 0.3 T  
Snow Depth 0.00 in    
Sea Level Pressure  
Sea Level Pressure 30.00 in    
Wind  
Wind Speed 10 mph (NNE)    
Max Wind Speed 21 mph    
Max Gust Speed 24 mph    
Visibility 9 miles    
Events Rain , Thunderstorm    
T = Trace of Precipitation, MM = Missing Value Source: NWS Daily Summary

Daily Weather History Graph

Daily Weather History Graph

Search for Another Location

Airport:

Trip Planner

Search our weather history database for the weather conditions in past years. The results will help you decide how hot, cold, wet, or windy it might be!

Date:

Astronomy

May. 13, 2014 Rise Set
Actual Time 6:24 AM CDT 8:01 PM CDT
Civil Twilight 5:58 AM CDT 8:27 PM CDT
Nautical Twilight 5:26 AM CDT 8:58 PM CDT
Astronomical Twilight 4:54 AM CDT 9:31 PM CDT
Moon 7:08 PM CDT (5/13) 5:34 AM CDT (5/13)
Length of Visible Light 14h 29m
Length of Day
13h 37m
Waxing Gibbous, 99% of the Moon is Illuminated
May 13
Waxing Gibbous
May 14
Full
May 21
Last Quarter
May 28
New
Jun 5
First Quarter

Hourly Weather History & Observations

Time (CDT) Temp. Dew Point Humidity Pressure Visibility Wind Dir Wind Speed Gust Speed Precip Events Conditions
12:10 AM 77.0 °F 72.0 °F 84% 29.95 in 8.0 mi SSE 11.5 mph 23.0 mph N/A   Overcast
12:53 AM 77.0 °F 72.0 °F 84% 29.96 in 8.0 mi SSE 13.8 mph - N/A   Overcast
1:43 AM 77.0 °F 72.0 °F 84% 29.96 in 9.0 mi SSE 11.5 mph - N/A   Overcast
1:53 AM 77.0 °F 72.0 °F 84% 29.96 in 9.0 mi SSE 6.9 mph - N/A   Overcast
2:53 AM 77.0 °F 72.0 °F 84% 29.96 in 7.0 mi SSE 3.5 mph - N/A   Overcast
3:08 AM 75.9 °F 71.1 °F 85% 29.96 in 8.0 mi Calm Calm - N/A   Overcast
3:42 AM 71.1 °F 64.0 °F 78% 29.96 in 10.0 mi North 8.1 mph - N/A Thunderstorm Overcast
3:53 AM 71.1 °F 64.0 °F 78% 29.97 in 10.0 mi North 8.1 mph - N/A Thunderstorm Overcast
4:01 AM 70.0 °F 64.0 °F 81% 29.97 in 10.0 mi NNW 16.1 mph 24.2 mph N/A   Overcast
4:53 AM 68.0 °F 64.9 °F 90% 29.96 in 10.0 mi NNE 15.0 mph - 0.00 in   Overcast
5:02 AM 68.0 °F 64.9 °F 90% 29.97 in 10.0 mi NNE 12.7 mph - N/A   Overcast
5:27 AM 68.0 °F 64.9 °F 90% 29.97 in 10.0 mi NNE 12.7 mph - N/A   Overcast
5:53 AM 68.0 °F 64.9 °F 90% 29.99 in 10.0 mi NNE 10.4 mph - 0.00 in Rain Light Rain
6:53 AM 69.1 °F 64.0 °F 84% 30.01 in 10.0 mi North 9.2 mph - 0.00 in   Overcast
7:53 AM 69.8 °F 64.4 °F 83% 30.06 in 10.0 mi West 13.8 mph - N/A Rain Light Rain
8:17 AM 69.1 °F 64.9 °F 87% 30.05 in 10.0 mi NNW 12.7 mph 19.6 mph 0.00 in   Mostly Cloudy
8:53 AM 71.1 °F 64.9 °F 81% 30.05 in 10.0 mi NW 10.4 mph - 0.00 in   Overcast
10:53 AM 73.4 °F 66.2 °F 78% 30.03 in 10.0 mi North 10.4 mph - N/A   Partly Cloudy
11:53 AM 73.0 °F 66.0 °F 79% 29.99 in 10.0 mi ENE 13.8 mph - N/A   Overcast
12:53 PM 75.9 °F 66.9 °F 74% 29.99 in 10.0 mi ENE 12.7 mph - 0.00 in Rain Light Rain
1:53 PM 78.1 °F 68.0 °F 71% 30.00 in 10.0 mi North 8.1 mph - 0.00 in   Partly Cloudy
2:53 PM 79.0 °F 68.0 °F 69% 29.99 in 10.0 mi North 8.1 mph - N/A   Mostly Cloudy
3:00 PM 79.0 °F 68.0 °F 69% 29.99 in 10.0 mi North 5.8 mph - N/A   Mostly Cloudy
3:53 PM 79.0 °F 68.0 °F 69% 29.99 in 10.0 mi North 6.9 mph - N/A   Mostly Cloudy
4:53 PM 73.9 °F 68.0 °F 82% 29.98 in 2.0 mi Calm Calm - 0.03 in Rain Rain
4:59 PM 73.9 °F 69.1 °F 85% 29.98 in 6.0 mi SE 6.9 mph - 0.01 in Rain Light Rain
5:43 PM 75.0 °F 68.0 °F 79% 29.98 in 6.0 mi ENE 6.9 mph - 0.02 in Rain , Thunderstorm Light Rain
5:53 PM 75.0 °F 70.0 °F 84% 29.98 in 6.0 mi NE 6.9 mph - 0.02 in Rain Light Rain
6:41 PM 73.9 °F 70.0 °F 87% 29.98 in 10.0 mi NNE 4.6 mph - 0.00 in   Mostly Cloudy
6:53 PM 73.0 °F 69.1 °F 87% 29.99 in 10.0 mi NNE 6.9 mph - 0.00 in   Overcast
7:53 PM 71.1 °F 66.9 °F 87% 29.99 in 10.0 mi NNW 9.2 mph - 0.00 in Rain Light Rain
7:57 PM 69.8 °F 66.2 °F 88% 30.00 in 10.0 mi NNW 12.7 mph - N/A Rain Light Rain
8:39 PM 68.0 °F 64.9 °F 90% 30.01 in 10.0 mi North 17.3 mph - 0.00 in   Overcast
8:53 PM 68.0 °F 64.0 °F 87% 30.02 in 10.0 mi North 17.3 mph - 0.00 in Rain Light Rain
9:53 PM 66.9 °F 64.0 °F 90% 30.05 in 10.0 mi North 11.5 mph 23.0 mph 0.00 in   Overcast
10:00 PM 66.9 °F 64.0 °F 90% 30.05 in 9.0 mi North 13.8 mph - 0.00 in Rain Light Rain
10:40 PM 66.9 °F 64.0 °F 90% 30.06 in 10.0 mi North 15.0 mph - 0.00 in   Overcast
10:53 PM 66.9 °F 63.0 °F 87% 30.07 in 10.0 mi North 11.5 mph - 0.00 in   Overcast
11:06 PM 66.0 °F 63.0 °F 90% 30.06 in 10.0 mi North 15.0 mph 23.0 mph N/A   Overcast
11:48 PM 66.2 °F 62.6 °F 88% 30.07 in 10.0 mi North 11.5 mph - N/A   Overcast
11:53 PM 66.0 °F 63.0 °F 90% 30.07 in 10.0 mi North 10.4 mph - N/A   Overcast